Regional Weather Roundup
Issued by NWS Charleston, SC

Current Version | Previous Version | Graphics & Text | Print | Product List | Glossary On
Versions: 1 2 3 4 5 6 7 8 9 10 11 12 13 14 15 16 17 18 19 20 21 22 23 24 25 26 27 28 29 30 31 32 33 34 35 36 37 38 39 40 41 42 43 44 45 46 47 48 49 50
000
ASUS42 KCHS 211110
RWRCHS
REGIONAL WEATHER ROUNDUP
NATIONAL WEATHER SERVICE CHARLESTON SC
700 AM EDT MON APR 21 2014

NOTE: "FAIR" INDICATES FEW OR NO CLOUDS BELOW 12,000 FEET WITH NO
SIGNIFICANT WEATHER AND/OR OBSTRUCTIONS TO VISIBILITY.

NOT ALL STATIONS ARE QUALITY CONTROLLED BY THE NATIONAL
WEATHER SERVICE. USE DATA WITH CAUTION...ESPECIALLY
DEWPOINT OBSERVATIONS.

SCZ027-030-031-034>040-042>050-211200-
...SOUTH CAROLINA...

CITY           SKY/WX    TMP DP  RH WIND       PRES   REMARKS
N CHARLESTON   PTCLDY    56  43  61 N13G20    30.08R
WATERFRONT PRK   N/A     57 N/A N/A N16         N/A
FORT JOHNSON   NOT AVBL
MOUNT PLEASANT FAIR     N/A N/A N/A N6        30.07R
JOHNS ISLAND   SUNNY     55  48  76 N10       30.07R
PINOPOLIS        N/A     57  46  67 NE16      30.01R
MONCKS CORNER  FAIR      55  48  76 N7G16     30.08S
SUMMERVILLE    NOT AVBL
BEAUFORT MCAS  CLEAR     56  48  74 NE6       30.08R
BEAUFORT ARPT  FAIR      55  50  82 N7        30.08R
HILTON HEAD IS NOT AVBL
GEORGETOWN     NOT AVBL
WALTERBORO     SUNNY     52  52 100 N5        30.10R
ORANGEBURG     CLEAR     52  42  69 N7        30.11R
BARNWELL       FAIR      50  45  81 N7        30.13R
AIKEN          FAIR      48  45  87 N6        30.16R
MANNING        FAIR      52  45  76 N5        30.10S
KINGSTREE      NOT AVBL
COLUMBIA       CLEAR     51  42  71 N6        30.13R
SUMTER         CLEAR     49  41  73 N8        30.11R
FLORENCE       CLEAR     50  40  68 N9        30.11R
MYRTLE BEACH   CLEAR     52  39  62 N16       30.07R
N MYRTLE BEACH CLEAR     50  42  74 N7        30.06R

$$

GAZ063-065-086>088-099>101-113>116-118-119-134-136>141-150-211200-
...GEORGIA...

CITY           SKY/WX    TMP DP  RH WIND       PRES   REMARKS
SAVANNAH ARPT  CLEAR     53  48  83 N5        30.09R
HUNTER AAF     CLEAR     54  51  90 VRB3      30.07R
FORT STEWART   CLEAR     51  51 100 W3        30.08R
STATESBORO     NOT AVBL
SYLVANIA       SUNNY     54  47  78 N6        30.12R
CLAXTON        FAIR     N/A N/A N/A CALM      30.13R
THOMSON        CLEAR     40  40 100 CALM      30.21R
AUGUSTA-BUSH   CLEAR     46  42  86 CALM      30.14R
AUGUSTA-DANIEL CLEAR     50  42  74 N9        30.15R
SWAINSBORO     FAIR      46  46 100 N3        30.14R
VIDALIA        CLEAR     52  46  82 N5        30.13R
ALMA           CLEAR     51  46  83 CALM      30.11R
WAYCROSS       NOT AVBL
JESUP          FAIR      52  50  93 N3        30.10R
BRUNSWICK      CLOUDY    54  52  94 NW3       30.09R
SAINT SIMONS   CLOUDY    55  52  89 NW3       30.08R

$$

SCZ027-028-034-036>038-045-046-048>050-GAZ119-141-211200-
...LAKE AND SUPPLEMENTAL COASTAL OBSERVATIONS...

STATION/POSITION TIME  TEMP    WIND        PRES    WAVE   SWELL
                       AIR SEA DIR/SP/G            HT/PER HT/PER/DIR
                 (UTC) (F)     (DEG/KT/KT) (MB)    (FT/S) (FT/S/D)
UPR LAKE MARION  NOT AVBL
WINYAH BAY       1000   53     350/  8     1017.0S
LAKE MURRAY      1000   49     360/  3/  6 1019.6S
ACE BASIN NERRS  1000   56     360/  2     1018.0S
FORT PULASKI     1100   58 58  350/  6/  7 1018.6R
SAPELO ISLAND    1000   56     330/  3     1018.0S

$$

ANZ835-935-AMZ111-154-330-350-352-354-374-450-454-472-211200-
...C-MAN AND BUOY OBSERVATIONS...

STATION/POSITION TIME  TEMP    WIND        PRES    WAVE   SWELL
                       AIR SEA DIR/SP/G            HT/PER HT/PER/DIR
                 (UTC) (F)     (DEG/KT/KT) (MB)    (FT/S) (FT/S/D)
FOLLY BEACH CMAN 1000   56     350/ 11/ 14 1018.1R
BUOY 41004       NOT AVBL
BUOY 41008       1100   62 63   20/ 14/ 16 1017.4S   5/ 6   3/ 90/ 9
5E ST. MARYS GA  1100      63                N/A     5/13   2/ 80/13
FRYING PAN BUOY  1100   57 67   10/ 25/ 29 1015.1R   9/ 6   3/120/12
BUOY 41025       1100   57 75   10/ 29/ 33 1013.3R  12/11  10/ 60/11
CAPE LOOKOUT NC  1000   52     360/ 21/ 28 1015.0S
BUOY 41002       NOT AVBL
BUOY 41010       1100   70 74  340/ 12/ 17 1013.9R   8/12   7/ 20/12
BUOY 41012       NOT AVBL
ST AUGUSTINE FL  1100   60     320/  6/  7 1018.3R
CAPERS NEARSHORE NOT AVBL
FRIPP NEARSHORE  1000   59      10/ 12/ 14   N/A


$$


USA.gov is the U.S. government's official web portal to all federal, state and local government web resources and services.